[[{"header":{"parameterUnit":"m.s-1","parameterCategory":1,"la1":30.2991,"la2":30.254,"lo1":-89.0895,"lo2":-89.0444,"dy":0.0017,"dx":0.0017,"nx":28,"ny":28,"refTime":"2024-08-18T21:00:00:Z","depth":0,"parameterNumber":2,"parameterNumberName":"U-component_of_WINDS"},"data":[0,0,0,0,0,0,0,0,0,0,0,0,0,0,0,0,0,0,0,0,0,0,0,0,0,0,0,0,0,0,0,0,0,0,0,0,0,0,0,0,0,0,0,0,0,0,0,0,0,0,0,0,0,0,0,0,0,0,4.7815,4.7818,0,4.8027,4.8029,4.8032,4.7984,4.798,4.7976,4.7972,4.8197,4.8206,4.8216,0,0,0,0,0,0,0,0,0,0,0,0,0,4.7378,4.7386,4.7815,4.7818,4.782,4.8026,4.8029,4.8032,4.7984,4.7979,4.7975,4.797,4.8194,4.8205,4.8217,0,0,0,0,0,0,0,0,0,0,0,0,0,4.7577,4.7389,4.7815,4.7821,4.7824,4.8026,4.8029,4.8033,4.7985,4.7979,4.7973,4.7968,4.819,4.8204,4.8219,4.843,0,0,4.8263,4.827,0,0,0,0,0,0,0,0,4.7566,4.7593,4.7818,4.7821,4.7824,4.7972,4.7958,4.8166,4.7987,4.7924,4.7972,4.7965,4.8128,4.8147,4.82,4.844,4.845,4.8265,4.8273,4.828,4.8284,0,0,0,0,0,0,0,4.7552,4.7584,4.7899,4.7821,4.7825,4.7816,4.7838,4.7997,4.8058,4.7929,4.7926,4.7952,4.8128,4.8186,4.8205,4.8453,4.8264,4.8277,4.8286,4.8292,4.8877,4.8884,0,0,0,0,0,0,4.7534,4.7572,4.7892,4.7905,4.7677,4.7829,4.7853,4.7931,4.8056,4.8069,4.7956,4.7949,4.8164,4.8188,4.8213,4.8468,4.828,4.8293,4.8302,4.8871,4.8879,4.8886,0,0,0,0,0,0,4.7525,4.7563,4.7884,4.7738,4.7778,4.7843,4.7931,4.7939,4.7996,4.8076,4.8087,4.8004,4.816,4.8192,4.8376,4.8475,4.83,4.8313,4.8863,4.8873,4.8883,4.8979,0,0,0,0,0,0,4.7512,4.756,4.7639,4.774,4.7786,4.8041,4.7937,4.7947,4.802,4.8012,4.8123,4.8136,4.8158,4.8354,4.839,4.8492,4.8325,4.8854,4.8867,4.8879,4.8968,4.8992,4.9012,0,0,0,0,0,4.7497,4.766,4.7643,4.7682,4.7886,4.8046,4.8073,4.8092,4.8029,4.811,4.8161,4.8133,4.8458,4.8373,4.8413,4.8521,4.8848,4.8864,4.8878,4.8958,4.8987,4.9012,0,0,0,0,0,0,4.7571,4.7673,4.7656,4.7855,4.7942,4.8038,4.814,4.8123,4.8232,4.822,4.8242,4.8268,4.8454,4.8506,4.8409,4.8732,4.8644,4.8668,4.8691,4.8719,4.8741,4.8725,4.8337,0,0,0,0,0,4.761,4.773,4.7813,4.7982,4.8026,4.8076,4.8147,4.8154,4.8246,4.8283,4.8348,4.8441,4.8564,4.8645,4.8763,4.8975,4.8999,4.907,4.9092,4.911,4.913,4.9247,4.9279,4.8936,4.8936,4.8936,0,0,4.7693,4.7764,4.7838,4.7998,4.8066,4.8192,4.8107,4.8244,4.8337,4.8305,4.848,4.8532,4.8637,4.8836,4.8927,4.8885,4.923,4.9129,4.9143,4.9154,4.9266,4.9298,4.9327,4.8947,4.8945,4.8943,0,0,4.7908,4.7973,4.812,4.8189,4.8292,4.8325,4.836,4.8459,4.849,4.8667,4.8645,4.8759,4.897,4.9046,4.9112,4.9356,4.9334,4.9394,4.951,4.9623,4.965,4.9674,4.9761,4.9792,4.9414,4.9414,4.9415,0,4.7998,4.8183,4.8198,4.8336,4.8408,4.8382,4.8532,4.86,4.8738,4.8789,4.8739,4.9004,4.9073,4.9289,4.9348,4.9403,4.9445,4.9381,4.9645,4.9669,4.9692,4.9775,4.9807,4.9421,4.942,4.942,4.9419,0,4.829,4.8419,4.8526,4.8656,4.874,4.8884,4.8922,4.9006,4.9007,4.9045,4.9226,4.9307,4.9441,4.9493,4.9496,4.971,4.9681,4.9639,4.9551,4.9731,4.9809,4.9841,4.943,4.9428,4.9426,4.9424,0,0,4.8556,4.8692,4.8731,4.879,4.8902,4.9004,4.9147,4.9275,4.9346,4.9443,4.9565,4.9744,4.9705,4.978,4.9792,4.9892,5.0079,4.9837,4.984,4.9879,5.032,5.0351,5.0387,5.0065,5.0072,5.0077,5.0311,0,4.878,4.9029,4.9047,4.9273,4.9393,4.937,4.9495,4.9579,4.9619,4.9729,4.9775,4.9901,4.984,4.9885,4.9983,5.0035,5.0168,5.0019,5.0181,5.0186,5.0153,5.0428,5.0461,5.0678,5.0342,5.0347,5.0351,0,4.9075,4.9176,4.9414,4.9508,4.956,4.9671,4.979,4.9894,4.999,5.0012,5.0096,5.0094,5.0244,5.0151,5.0358,5.0256,5.0324,5.036,5.0369,5.0384,5.0279,5.045,5.0748,5.078,5.0399,5.0395,5.0392,0,4.9244,4.9442,4.9608,4.966,4.9775,4.9854,4.9906,4.9995,5.0071,5.0176,5.0226,5.0348,5.0415,5.0511,5.0543,5.0472,5.075,5.0659,5.0774,5.0773,5.0832,5.0828,5.1144,5.0878,5.0877,5.0876,5.0876,0,4.9492,4.9638,4.9686,4.9789,4.9952,4.9973,5.0135,5.0183,5.0263,5.0376,5.0366,5.0473,5.0508,5.0623,5.065,5.0817,5.0848,5.0872,5.0877,5.0872,5.0869,5.0916,5.0902,5.0885,5.0883,5.0882,5.088,0,4.9708,4.9746,4.9927,5.0021,5.0048,5.0164,5.0245,5.0346,5.0384,5.0527,5.0563,5.0624,5.0757,5.0799,5.0961,5.0979,5.1175,5.1168,5.1142,5.1142,5.1254,5.1242,5.1611,5.166,5.1362,5.1364,5.1367,0,4.9863,4.9974,5.008,5.0153,5.0208,5.0327,5.0404,5.0429,5.051,5.0627,5.0714,5.0845,5.0952,5.1168,5.1228,5.1353,5.1347,5.1468,5.1366,5.1358,5.1349,5.1341,5.1352,5.1487,5.149,5.1492,5.1495,0,5.0134,5.0147,5.0256,5.0373,5.0464,5.0557,5.0648,5.071,5.0749,5.084,5.0975,5.1058,5.1222,5.1354,5.148,5.1537,5.1524,5.1526,5.1559,5.1555,5.1535,5.1546,5.1193,5.1517,5.1515,5.1513,5.1512,5.1511,5.0324,5.0422,5.051,5.0633,5.0703,5.0787,5.0886,5.0935,5.1047,5.1181,5.119,5.1337,5.1431,5.1599,5.1662,5.1779,5.1744,5.1792,5.1804,5.1815,5.1824,5.1517,5.1802,5.1801,5.1801,5.18,5.18,0,5.0593,5.0649,5.0761,5.0886,5.0983,5.0959,5.1058,5.1142,5.1269,5.1357,5.1461,5.1617,5.1745,5.1815,5.1943,5.2023,5.202,5.2055,5.2049,5.2063,5.1848,5.1806,5.2056,5.2056,5.2055,5.2055,5.2055,5.2055,5.0745,5.0908,5.0932,5.1131,5.1187,5.1328,5.1386,5.1465,5.1535,5.1708,5.1813,5.1857,5.1938,5.2072,5.2188,5.2206,5.2253,5.2293,5.2307,5.2104,5.2078,5.2053,5.2014,5.2303,5.2304,5.2512,5.2514,5.2516]},{"header":{"parameterUnit":"m.s-1","parameterCategory":1,"la1":30.2991,"la2":30.254,"lo1":-89.0895,"lo2":-89.0444,"dy":0.0017,"dx":0.0017,"nx":28,"ny":28,"refTime":"2024-08-18T21:00:00:Z","depth":0,"parameterNumber":3,"parameterNumberName":"V-component_of_WINDS"},"data":[0,0,0,0,0,0,0,0,0,0,0,0,0,0,0,0,0,0,0,0,0,0,0,0,0,0,0,0,0,0,0,0,0,0,0,0,0,0,0,0,0,0,0,0,0,0,0,0,0,0,0,0,0,0,0,0,0,0,2.1396,2.1397,0,2.1484,2.1485,2.1486,2.145,2.1448,2.1446,2.1444,2.1534,2.1538,2.1543,0,0,0,0,0,0,0,0,0,0,0,0,0,2.1199,2.1203,2.1396,2.1397,2.1399,2.1483,2.1485,2.1486,2.1451,2.1448,2.1446,2.1443,2.1533,2.1538,2.1543,0,0,0,0,0,0,0,0,0,0,0,0,0,2.1285,2.1204,2.1396,2.1391,2.1392,2.1483,2.1485,2.1486,2.1451,2.1448,2.1445,2.1442,2.1531,2.1537,2.1544,2.1645,0,0,2.1563,2.1566,0,0,0,0,0,0,0,0,2.1281,2.1293,2.1391,2.1392,2.1392,2.1453,2.1448,2.154,2.1452,2.1429,2.1444,2.1441,2.151,2.1518,2.1541,2.165,2.1653,2.1564,2.1568,2.1571,2.1572,0,0,0,0,0,0,0,2.1275,2.1289,2.1431,2.1392,2.1393,2.1385,2.1393,2.1465,2.1485,2.143,2.1428,2.1439,2.1509,2.1535,2.1543,2.1655,2.1564,2.157,2.1573,2.1576,2.1851,2.1854,0,0,0,0,0,0,2.1268,2.1284,2.1428,2.1433,2.1328,2.1391,2.1401,2.1437,2.1485,2.1489,2.1441,2.1437,2.1525,2.1535,2.1546,2.1668,2.1571,2.1577,2.158,2.1848,2.1852,2.1855,0,0,0,0,0,0,2.1264,2.1282,2.1425,2.1358,2.1376,2.1397,2.1438,2.144,2.1465,2.1493,2.1496,2.1464,2.1523,2.1537,2.1621,2.1671,2.158,2.1585,2.1844,2.1849,2.1854,2.1914,0,0,0,0,0,0,2.1259,2.128,2.1319,2.1359,2.1379,2.1499,2.1441,2.1444,2.1476,2.1471,2.1515,2.1519,2.1522,2.1611,2.1627,2.1678,2.159,2.1839,2.1846,2.1852,2.1907,2.192,2.1931,0,0,0,0,0,2.1252,2.1333,2.1322,2.1339,2.1429,2.1501,2.1513,2.1515,2.1481,2.152,2.1538,2.1517,2.1662,2.162,2.1638,2.1691,2.1836,2.1844,2.1851,2.1902,2.1918,2.1931,0,0,0,0,0,0,2.1299,2.1338,2.1326,2.1422,2.1459,2.1495,2.1545,2.1531,2.1578,2.1572,2.1572,2.1582,2.1669,2.1688,2.1641,2.1792,2.1744,2.1756,2.1777,2.1792,2.1803,2.1797,2.1596,0,0,0,0,0,2.132,2.1376,2.1407,2.1489,2.1508,2.1524,2.1555,2.1554,2.1591,2.1607,2.163,2.1668,2.1722,2.1758,2.1809,2.191,2.1919,2.1955,2.1967,2.1977,2.1987,2.2042,2.2058,2.1881,2.1881,2.1881,0,0,2.1365,2.1394,2.1429,2.1499,2.1528,2.1586,2.1537,2.16,2.1643,2.1616,2.1698,2.1716,2.1758,2.1851,2.1893,2.187,2.2038,2.1986,2.1994,2.1999,2.2051,2.2068,2.2083,2.1886,2.1885,2.1884,0,0,2.1477,2.1504,2.1575,2.1604,2.1647,2.1657,2.1674,2.1713,2.1724,2.1805,2.1786,2.1837,2.193,2.1961,2.1989,2.2111,2.2095,2.2128,2.2191,2.2244,2.2258,2.2271,2.2315,2.2331,2.2138,2.2138,2.2138,0,2.1528,2.1615,2.1614,2.1679,2.1711,2.1688,2.1761,2.1789,2.1846,2.1869,2.1841,2.1958,2.1984,2.2084,2.2114,2.2137,2.2157,2.2124,2.2256,2.2269,2.228,2.2323,2.2339,2.2142,2.2141,2.2141,2.2141,0,2.1675,2.1735,2.1788,2.1844,2.1881,2.1949,2.1959,2.1997,2.1991,2.2004,2.2087,2.2118,2.2175,2.2198,2.2193,2.2297,2.2282,2.2256,2.2207,2.2301,2.2341,2.2357,2.2147,2.2146,2.2145,2.2144,0,0,2.182,2.1874,2.1894,2.1919,2.1964,2.2011,2.2078,2.2134,2.2166,2.2206,2.2263,2.2342,2.2318,2.2349,2.2347,2.2394,2.249,2.2362,2.2363,2.2386,2.2607,2.2627,2.2646,2.2478,2.2482,2.2484,2.2604,0,2.1936,2.2054,2.2055,2.2164,2.2219,2.2199,2.2257,2.2291,2.2304,2.2353,2.2367,2.2424,2.2387,2.2406,2.2451,2.2469,2.2535,2.246,2.2532,2.2534,2.2523,2.2666,2.2688,2.28,2.2619,2.2622,2.2624,0,2.2087,2.2132,2.2247,2.2284,2.2307,2.236,2.2411,2.2458,2.2496,2.2502,2.2537,2.2528,2.2596,2.2545,2.2639,2.2589,2.2618,2.263,2.2635,2.2643,2.2585,2.2679,2.2835,2.2852,2.2648,2.2646,2.2644,0,2.2182,2.2271,2.2351,2.2373,2.2419,2.2456,2.2477,2.2512,2.2545,2.2589,2.2611,2.2663,2.2691,2.2731,2.2737,2.2699,2.2832,2.2781,2.2839,2.2839,2.2869,2.2867,2.3033,2.2886,2.2886,2.2885,2.2885,0,2.2313,2.2383,2.2395,2.2444,2.2523,2.2523,2.2601,2.2618,2.2649,2.2702,2.2686,2.2735,2.2739,2.279,2.2794,2.2871,2.2884,2.2891,2.2892,2.2893,2.2893,2.2913,2.2906,2.289,2.2889,2.2888,2.2887,0,2.2433,2.2443,2.2529,2.2564,2.2575,2.2632,2.2662,2.2709,2.272,2.2786,2.2802,2.2819,2.2878,2.2887,2.2956,2.2959,2.3052,2.3044,2.3039,2.3038,2.3097,2.3091,2.3282,2.3308,2.3143,2.3145,2.3146,0,2.2516,2.257,2.2611,2.2645,2.2667,2.2722,2.2756,2.2758,2.2794,2.2841,2.2882,2.2939,2.2985,2.308,2.3099,2.3151,2.3145,2.3208,2.3153,2.3153,2.3147,2.3144,2.315,2.3219,2.3221,2.3223,2.3224,0,2.2662,2.2664,2.2713,2.2765,2.2806,2.2846,2.2885,2.2913,2.292,2.2961,2.3021,2.3056,2.3127,2.3184,2.3235,2.3256,2.3242,2.3241,2.3257,2.326,2.3255,2.3259,2.3069,2.3237,2.3235,2.3234,2.3234,2.3233,2.2766,2.2813,2.285,2.2905,2.2934,2.297,2.3016,2.3033,2.3083,2.314,2.3138,2.3204,2.324,2.3308,2.3333,2.3384,2.3364,2.3387,2.3394,2.34,2.3406,2.3246,2.3394,2.3393,2.3393,2.3393,2.3392,0,2.2912,2.2934,2.2986,2.304,2.3083,2.3065,2.3106,2.3144,2.3202,2.3237,2.3283,2.3351,2.3406,2.3429,2.3483,2.352,2.3515,2.3534,2.3532,2.3537,2.3421,2.3401,2.3538,2.3538,2.3538,2.3538,2.3538,2.3538,2.2993,2.3072,2.3079,2.3172,2.3193,2.3258,2.3283,2.3316,2.3344,2.3422,2.3468,2.3482,2.3512,2.3568,2.3618,2.3623,2.3644,2.3667,2.3669,2.356,2.3546,2.3532,2.3514,2.3671,2.3671,2.3782,2.3783,2.3784]}]]